Tracking 29019 objects as of 13-Jun-2024
HD Live streaming from Space Station
objects crossing your sky now

ARIANE 42P+3 R/B

Track ARIANE 42P+3 R/B now!
10-day predictions


NORAD ID: 23847
Int'l Code: 1996-022B
Perigee: 312.7 km
Apogee: 26,711.7 km
Inclination: 6.8 °
Period: 465.0 minutes
Semi major axis: 19883 km
RCS: 21.539 m2 (large)
Launch date: April 20, 1996
Source: France (FR)
Launch site: FRENCH GUIANA (FRGUI)

Note: This is a ROCKET BODY
Your satellite tracking list
Your tracking list is empty




NASA's NSSDC Master Catalog

Two Line Element Set (TLE):
1 23847U 96022B   24164.23800842  .00003049  00000-0  14992-2 0  9990
2 23847   6.7500  85.7723 6638504 231.8367  47.4494  3.09651440283106
Source of the keplerian elements: AFSPC